Regional Weather Roundup
Issued by NWS Upton, NY

Current Version | Previous Version | Text Only | Print | Product List | Glossary On
Versions: 1 2 3 4 5 6 7 8 9 10 11 12 13 14 15 16 17 18 19 20 21 22 23 24 25 26 27 28 29 30 31 32 33 34 35 36 37 38 39 40 41 42 43 44 45 46 47 48 49 50
836 ASUS41 KOKX 291704 RWROKX REGIONAL WEATHER ROUNDUP NATIONAL WEATHER SERVICE NEW YORK NY 100 PM EDT FRI APR 29 2016 NOTE: "FAIR" INDICATES FEW OR NO CLOUDS BELOW 12,000 FEET WITH NO SIGNIFICANT WEATHER AND/OR OBSTRUCTIONS TO VISIBILITY. NYZ071-072-176-178-NJZ106-104-291800- NEW YORK CITY METRO AREA CITY SKY/WX TMP DP RH WIND PRES REMARKS CENTRAL PARK CLOUDY 57 21 24 E10G16 30.12F LAGUARDIA APRT PTSUNNY 57 19 22 E21 30.10F KENNEDY INTL PTSUNNY 57 30 35 E18G24 30.12F NEWARK/LIBERTY CLOUDY 57 25 29 E14G20 30.10F BRNX BOT. GARD N/A 52 36 54 SE6 30.12F TETERBORO CLOUDY 54 33 45 E8G17 30.09F $$ NYZ177-179-078>081-291800- LONG ISLAND NEW YORK CITY SKY/WX TMP DP RH WIND PRES REMARKS FARMINGDALE PTSUNNY 54 28 36 E16G24 30.11F ISLIP CLOUDY 54 26 34 E21 30.11F SHIRLEY CLOUDY 54 31 41 E9 30.13F RIVERHEAD N/A 54 37 54 SE5 30.13F WESTHAMPTON CLOUDY 49 34 56 SE14G20 30.15S EAST HAMPTON FAIR 51 34 51 E17 30.14F MONTAUK POINT N/A 50 35 56 NE13G20 30.16F $$ NYZ052-065-067-291800- HUDSON VALLEY CITY SKY/WX TMP DP RH WIND PRES REMARKS WHITE PLAINS PTSUNNY 54 32 43 SE14G20 30.10F NEWBURGH PTSUNNY 55 34 44 E14 30.10F MONTGOMERY CLOUDY 56 32 40 VRB6 30.08F POUGHKEEPSIE CLOUDY 57 30 35 S10G17 30.09F ALBANY PTSUNNY 57 35 43 S9 30.09F $$ NJZ001-105-106-008-010-013-015-019>022-104-291800- NEW JERSEY CITY SKY/WX TMP DP RH WIND PRES REMARKS NEWARK/LIBERTY CLOUDY 57 25 29 E14G20 30.10F TETERBORO CLOUDY 54 33 45 E8G17 30.09F CALDWELL CLOUDY 54 29 38 SE8 30.10F MORRISTOWN CLOUDY 55 25 30 SE13G18 30.10F SOMERVILLE CLOUDY 55 34 45 SE6 30.08F SUSSEX CLOUDY 53 33 46 SE7 30.09F ANDOVER N/A 53 30 41 VRB5 30.08F TRENTON CLOUDY 52 37 56 E12 30.08F MILLVILLE CLOUDY 51 45 79 E9 30.05F ATLANTIC CITY CLOUDY 51 43 74 NE9 30.06F WRIGHTSTOWN CLOUDY 51 38 63 NE10 30.06F TOMS RIVER CLOUDY 48 39 71 E8 30.09F BELMAR CLOUDY 49 39 68 E15G21 30.10F $$ PAZ047>061-062-071-291800- EASTERN PENNSYLVANIA CITY SKY/WX TMP DP RH WIND PRES REMARKS PHILADELPHIA CLOUDY 53 40 61 E9 30.08F ALLENTOWN CLOUDY 54 33 45 SE10G20 30.07F SCRANTON CLOUDY 54 35 48 E8 30.03F $$ CTZ002-004>006-009-010-012-RIZ004-006-007-MAZ004-011-015-291800- SOUTHERN NEW ENGLAND IN CT CITY SKY/WX TMP DP RH WIND PRES REMARKS BRADLEY INTL PTSUNNY 56 35 45 VRB5 30.11F HARTFORD CLOUDY 56 38 50 S6 30.12F DANBURY CLOUDY 53 32 44 S10 30.12F WTRBRY/OXFORD PTSUNNY 54 36 50 SE9G16 30.13F BRIDGEPORT CLOUDY 51 38 60 E17 30.14F MERIDEN CLOUDY 56 36 47 E8 30.12F NEW HAVEN PTSUNNY 51 38 60 E16G23 30.15F CHESTER FAIR 52 34 50 SE12 30.13F GROTON CLOUDY 50 41 71 E20 30.15F WILLIMANTIC CLOUDY 57 33 40 S6 30.12F IN RI CITY SKY/WX TMP DP RH WIND PRES REMARKS PROVIDENCE MOSUNNY 53 30 41 VRB6 30.16F BLOCK ISLAND CLOUDY 48 37 65 E16 30.16F WESTERLY PTSUNNY 51 33 50 E14 30.16F IN MA CITY SKY/WX TMP DP RH WIND PRES REMARKS BOSTON PTSUNNY 50 33 52 E17 30.18F WORCESTER CLOUDY 51 28 41 SE7 30.12F WESTFIELD PTSUNNY 57 32 38 SW8G16 30.10F PROVINCETOWN MOSUNNY 50 32 50 VRB3 30.19F NANTUCKET CLOUDY 48 33 56 E15 30.17F $$ ANZ330-335-338-340-345-350-353-355-291800- COASTAL MARINE OBSERVATIONS STATION/POSITION TIME SKY/WX TEMP WIND PRES VSBY WAVE AIR SEA DIR/SP/G HT/PER (UTC) (F) (DEG/KT/KT) (MB) (MI) (FT/S) NY HARB ENTRANCE 1550 48 51 80/ 17/ 21 1019.4 5/ 6 20S FIRE ISLAND 1550 47 49 80/ 17/ 21 1019.4 6/ 6 GREAT SOUTH BAY 1600 49 57 80/ 14/ 21 N/A 23 SSW MONTAUK P 1650 45 47 90/ 17/ 19 1019.7 6/ 6 15 E BARNEGAT LI 1622 51 N/A 6/ 6 HUDSON CANYON 1550 50 51 1017.6 7/ 7 KINGS POINT 1600 53 53 1019.9 EXECUTION ROCKS NOT AVBL CENTRAL LI SOUND 1600 47 90/ 16/ 19 N/A 3/ 4 EASTERN LI SOUND 1600 48 48 90/ 14/ 17 N/A ROBBINS REEF 1612 52 100/ 19/ 23 1018.9 $$ >>>>>>>>>>>>>>>>>>>>>>>>>>>> KEY <<<<<<<<<<<<<<<<<<<<<<<<<<< > < > SKY/WX - SKY CONDITION/PRESENT WEATHER < > TMP - TEMPERATURE IN FAHRENHEIT < > DP - DEWPOINT IN FAHRENHEIT < > RH - RELATIVE HUMIDITY IN PERCENT < > WIND - DIRECTION AND SPEED IN MPH < > PRES - MEAN SEA LEVEL PRESSURE IN INCHES OF HG < > WCI - WIND CHILL INDEX < > VSB - VISIBILITY IN MILES < > HX - HEAT INDEX < > TC - TEMPERATURE IN CELSIUS < > VRB - VARIABLE WIND DIRECTION < > < >>>>>>>>>>>>>>>>>>>>>>>>>>>> KEY <<<<<<<<<<<<<<<<<<<<<<<<<<<

USA.gov is the U.S. government's official web portal to all federal, state and local government web resources and services.